Volver al catálogo

STARLINK-36284

ActivoComunicacionesVLEO
NORAD 67194·PAYLOAD·🇺🇸 United States

Lanzado Dec 17, 2025 desde Vandenberg Space Force Base

Loading…

Próximos Pases (próximas 24 horas)

TLE

ActualizadoSource: CelesTrak SupGP

Época: Sep 15, 2026, 04:03 UTC

1 67194C 25304C   26258.16923611 -.00014369  00000+0 -12048-2 0  2582
2 67194  70.0009  56.8162 0002560 274.2437 109.4087 14.98320466    18

Sigue STARLINK-36284 en tiempo real con AllMySat

Download on the App Store